FENGYUN 1C DEB, 29856

Orbit data source: Space-Track

FENGYUN 1C DEB, 29856 is space debris in SSO originally from a launch on Mon, 10 May 1999 UTC launched from the Taiyaun Space Center, China (TSC). Fengyun 1C debris stems from the Chinese weather satellite Fengyun-1C, which was intentionally destroyed by a Chinese anti-satellite missile in 2007. This event dramatically increased the amount of space debris, with thousands of trackable fragments posing hazards to satellites and human spaceflight. The Fengyun 1C debris cloud has become a focal point in discussions about space sustainability and the need for international regulations to prevent the creation of new debris.

Loading next visibility...
Identifier
29856, 1999-025FA
Orbit
SSO
Country
Flag of CNCN / PRC
Related business
Manufacturer
Unknown
Mission
Spacecraft
Bus & Motor
Unknown
Mass
Unknown
Launch date (UTC)
1999-05-10 (26 years ago)
Launch vehicle
Unknown
Launch site
Taiyaun Space Center, China (TSC)
Object type
Payload
Rocket body
Debris
Shape & HBR
Unknown shape, 0.1 m
Radar Cross Section
Small (<0.1 m²)

Expand to show TLE details & history
Last TLE update: 17 hours ago

TLE from 17 hours ago
0 FENGYUN 1C DEB
1 29856U 99025FA  25295.24223269  .00022604  00000-0  40321-2 0  9994
2 29856  98.6917  27.7949 0269829  93.6060 322.9360 14.45962390956301
Epoch: 2025-10-22T05:48Z
TLE epoch observation values (Epoch: 2025-10-22T05:48:48.904Z)
Latitude
53.81547°
Longitude
-102.32386°
Altitude
596.353 km
Speed
7.647 km/s
True Right ascension
01h 03m 11s
True Declination
53° 38' 51"
Sunlit
Object was in full shadow at epoch
Visualization orbit readout
Latitude
Unknown
Longitude
Unknown
Altitude
Unknown
Speed
Unknown
Apparent Right ascension
Unknown
Apparent Declination
Unknown
Sunlit
N/A
Visualization observer readout
Local Sidereal Time
17:39:33
Azimuth
Unknown
Elevation
Unknown
Doppler factor
Unknown
Orbital elements
Apogee altitude
927.946 km
Perigee altitude
544.027 km
Semi-major axis
7,114.123 km
Eccentricity
0.02698
Inclination
98.6917°
RAAN
27.7949°
Arg. of periapsis
93.606°
True anomaly
321.0213°
Mean anomaly
322.936°
Eccentric anomaly
321.98384°
Mean motion
3.6171 °/min
Orbital period
99.53 mins
BSTAR
0.0040321
Loading maneuver chart data...
Computing Atmospheric mass density...

Documentation

Showing up to 5 results
|